STARLINK-4595, 53627

Orbit data source: Space-Track

STARLINK-4595, 53627 is a payload satellite owned by SpaceX/Seattle (US) in LEO that was launched on Sun, 28 Aug 2022 UTC via an FALCON 9 launch vehicle from the Air Force Eastern Test Range (AFETR). Payload-class satellites include a variety of spacecraft equipped with specific instruments for various scientific and technological missions. These include communications satellites like Starlink; space stations such as the ISS; scientific satellites like the Hubble; Earth observation satellites from companies like Planet Labs, Umbra, and HawkEye 360; GPS; miniature CubeSats for education and research; and military/defense satellites.

Loading next visibility...
Identifier
53627, 2022-104AR
Orbit
LEO
Country
Flag of USUS
Related business
Manufacturer
SpaceX/Seattle
Mission
Operational Commercial Communications
Bus & Motor
STARLINK, Unknown motor
Mass
300 kg wet, ~290 kg dry
Launch date (UTC)
2022-08-28 (3 years ago)
Launch vehicle
FALCON 9
Launch site
Air Force Eastern Test Range (AFETR)
Object type
Payload
Rocket body
Debris
Shape & HBR
Box + 1 Pan, 10.1 m
Radar Cross Section
13.562 m², Large (>1 m²)

Expand to show TLE details & history
Last TLE update: 23 hours ago

TLE from 23 hours ago
0 STARLINK-4595
1 53627U 22104AR  26036.32923913 -.00000778  00000-0 -30808-4 0  9998
2 53627  53.2172  19.1087 0001275  89.3206 270.7933 15.08849381190877
Epoch: 2026-02-05T07:54Z
TLE epoch observation values (Epoch: 2026-02-05T07:54:06.260Z)
Latitude
0.00002°
Longitude
125.0996°
Altitude
540.6 km
Speed
7.593 km/s
True Right ascension
01h 16m 26s
True Declination
0° 00' 00"
Sunlit
Object was in daylight at epoch
Visualization orbit readout
Latitude
Unknown
Longitude
Unknown
Altitude
Unknown
Speed
Unknown
Apparent Right ascension
Unknown
Apparent Declination
Unknown
Sunlit
N/A
Visualization observer readout
Local Sidereal Time
09:06:26
Azimuth
Unknown
Elevation
Unknown
Doppler factor
Unknown
Orbital elements
Apogee altitude
540.842 km
Perigee altitude
539.078 km
Semi-major axis
6,918.097 km
Eccentricity
0.00013
Inclination
53.2172°
RAAN
19.1087°
Arg. of periapsis
89.3206°
True anomaly
270.77869°
Mean anomaly
270.7933°
Eccentric anomaly
270.786°
Mean motion
3.77193 °/min
Orbital period
95.44 mins
BSTAR
-0.000030808
Loading maneuver chart data...
Computing Atmospheric mass density...
Loading historical data...
Loading historical data...
Loading historical data...
Loading historical data...
Loading historical data...
Loading historical data...
Loading historical data...

Documentation

Showing up to 5 results
|